Location: Bruchhof
(51.8738°N, 9.9256°E)
Time: 03:04:09
(UTC+00:00)

Cosmos 1844 Rocket - Visible Passes

Search period start: 10 September 2024 00:00
Search period end: 20 September 2024 00:00
Orbit: 823 x 845 km, 71.0° (Epoch: 09 September)

Date Brightness Start Highest point End Pass type
(mag) Time Alt. Az. Time Alt. Az. Time Alt. Az.
10 Sep 5.5 18:55:58 10° WNW 18:58:54 14° W 19:01:50 10° SW visible
11 Sep 5.5 18:38:16 10° WNW 18:41:33 16° W 18:44:50 10° SW visible
12 Sep 5.5 18:20:36 10° WNW 18:24:10 17° W 18:27:45 10° SW visible
